Weather History for McCall, ID

Change the Weather History Date:

Tuesday, March 6, 2012

  Actual Average Record
Temperature  
Mean Temperature 24 °F 26 °F  
Max Temperature 33 °F 38 °F 57 °F (1992)
Min Temperature 15 °F 15 °F -12 °F (1971)
Degree Days  
Heating Degree Days 41 39  
Month to date heating degree days 237 236  
Since 1 July heating degree days 6256 6911  
Cooling Degree Days 0 0  
Month to date cooling degree days 0 0  
Year to date cooling degree days 0 0  
Moisture  
Dew Point 14 °F    
Average Humidity 67    
Maximum Humidity 92    
Minimum Humidity 42    
Precipitation  
Precipitation 0.12 in 0.05 in 1.53 in (1951)
Month to date precipitation 0.57 0.31  
Year to date precipitation 6.23 3.78  
Sea Level Pressure  
Sea Level Pressure 29.79 in    
Wind  
Wind Speed 9 mph (NW)    
Max Wind Speed 18 mph    
Max Gust Speed 24 mph    
Visibility 8 miles    
Events Snow    
T = Trace of Precipitation, MM = Missing Value Source: NWS Daily Summary

Daily Weather History Graph

Daily Weather History Graph

Search for Another Location

Airport:

Trip Planner

Search our weather history database for the weather conditions in past years. The results will help you decide how hot, cold, wet, or windy it might be!

Date:

Astronomy

Mar. 06, 2012 Rise Set
Actual Time 7:12 AM MST 6:39 PM MST
Civil Twilight 6:43 AM MST 7:08 PM MST
Nautical Twilight 6:09 AM MST 7:42 PM MST
Astronomical Twilight 5:35 AM MST 8:16 PM MST
Moon 5:09 PM MST (3/6) 5:53 AM MST (3/6)
Length of Visible Light 12h 25m
Length of Day
11h 27m
Waxing Gibbous, 96% of the Moon is Illuminated
Mar 6
Waxing Gibbous
Mar 8
Full
Mar 14
Last Quarter
Mar 22
New
Mar 30
First Quarter

Hourly Weather History & Observations

Time (MST) Temp. Windchill Dew Point Humidity Pressure Visibility Wind Dir Wind Speed Gust Speed Precip Events Conditions
12:22 AM 32.0 °F 26.4 °F 30.2 °F 93% 29.57 in 1.5 mi WSW 5.8 mph - 0.03 in Snow Light Snow
12:40 AM 32.0 °F 23.0 °F 30.2 °F 93% 29.57 in 0.8 mi West 11.5 mph 17.3 mph 0.05 in Snow Light Snow
12:51 AM 30.9 °F 21.2 °F 28.9 °F 92% 29.59 in 0.8 mi WSW 12.7 mph 19.6 mph 0.07 in Snow Light Snow
1:09 AM 28.4 °F 17.0 °F 26.6 °F 93% 29.59 in 1.0 mi WSW 15.0 mph 21.9 mph 0.02 in Snow Light Snow
1:21 AM 28.4 °F 17.5 °F 24.8 °F 86% 29.59 in 0.8 mi West 13.8 mph 21.9 mph 0.03 in Snow Light Snow
1:37 AM 28.4 °F 19.7 °F 24.8 °F 86% 29.59 in 1.0 mi WNW 9.2 mph - 0.05 in Snow Light Snow
1:44 AM 28.4 °F 20.4 °F 24.8 °F 86% 29.60 in 1.8 mi West 8.1 mph - 0.05 in Snow Light Snow
1:49 AM 28.4 °F 21.2 °F 24.8 °F 86% 29.60 in 2.0 mi WNW 6.9 mph - 0.05 in Snow Light Snow
2:03 AM 26.6 °F 18.2 °F 23.0 °F 86% 29.60 in 4.0 mi NW 8.1 mph 16.1 mph 0.01 in Snow Light Snow
2:51 AM 26.1 °F 19.4 °F 19.9 °F 78% 29.65 in 10.0 mi WNW 5.8 mph - 0.01 in   Overcast
3:51 AM 24.1 °F 16.0 °F 17.1 °F 75% 29.66 in 10.0 mi NNW 6.9 mph - N/A   Overcast
4:51 AM 24.1 °F 18.2 °F 15.1 °F 69% 29.67 in 10.0 mi North 4.6 mph - N/A   Overcast
5:51 AM 21.0 °F - 17.1 °F 85% 29.69 in 10.0 mi Calm Calm - N/A   Overcast
7:51 AM 17.1 °F 7.6 °F 10.9 °F 77% 29.72 in 10.0 mi West 6.9 mph - N/A   Mostly Cloudy
8:51 AM 19.0 °F 9.0 °F 10.0 °F 68% 29.73 in 10.0 mi NNW 8.1 mph - N/A   Clear
9:51 AM 21.9 °F 14.5 °F 8.1 °F 55% 29.73 in 10.0 mi NNW 5.8 mph - N/A   Clear
10:51 AM 24.1 °F 15.2 °F 10.0 °F 55% 29.75 in 10.0 mi NW 8.1 mph - N/A   Mostly Cloudy
11:51 AM 23.0 °F 13.1 °F 7.0 °F 50% 29.77 in 10.0 mi NW 9.2 mph - N/A   Overcast
12:51 PM 23.0 °F 10.6 °F 9.0 °F 55% 29.79 in 10.0 mi WNW 13.8 mph 24.2 mph N/A   Overcast
1:51 PM 24.1 °F 13.1 °F 7.0 °F 48% 29.81 in 10.0 mi NNW 11.5 mph - 0.00 in   Overcast
2:51 PM 24.1 °F 13.7 °F 6.1 °F 46% 29.85 in 10.0 mi North 10.4 mph - N/A   Overcast
3:51 PM 26.1 °F 16.8 °F 6.1 °F 43% 29.88 in 10.0 mi North 9.2 mph 18.4 mph N/A   Overcast
4:51 PM 25.0 °F 14.2 °F 6.1 °F 45% 29.91 in 10.0 mi North 11.5 mph 19.6 mph N/A   Clear
5:51 PM 23.0 °F 12.4 °F 7.0 °F 50% 29.97 in 10.0 mi NNW 10.4 mph 21.9 mph N/A   Clear
6:51 PM 19.9 °F 7.3 °F 8.1 °F 60% 30.01 in 10.0 mi North 12.7 mph 19.6 mph N/A   Clear
7:51 PM 19.0 °F 6.1 °F 10.0 °F 68% 30.06 in 10.0 mi North 12.7 mph 21.9 mph N/A   Partly Cloudy
8:22 PM 19.4 °F 6.0 °F 10.4 °F 68% 29.91 in 10.0 mi NNW 13.8 mph - N/A   Mostly Cloudy
8:51 PM 19.0 °F 6.1 °F 9.0 °F 65% 30.08 in 10.0 mi NNW 12.7 mph - N/A   Overcast
9:09 PM 19.4 °F 5.5 °F 8.6 °F 63% 29.94 in 10.0 mi NNW 15.0 mph 20.7 mph N/A   Overcast
9:48 PM 19.4 °F 7.2 °F 10.4 °F 68% 29.96 in 8.0 mi North 11.5 mph 18.4 mph 0.00 in Snow Light Snow
9:51 PM 19.0 °F 8.2 °F 9.0 °F 65% 30.10 in 8.0 mi NNW 9.2 mph 18.4 mph 0.00 in Snow Light Snow
10:16 PM 17.6 °F 7.3 °F 8.6 °F 68% 29.96 in 10.0 mi NNW 8.1 mph 20.7 mph 0.00 in   Overcast
11:51 PM 17.1 °F 8.7 °F 3.9 °F 56% 30.13 in 10.0 mi NNW 5.8 mph - N/A   Clear